Location: Ainavolu
(16.4875°N, 80.5019°E)
Time: 14:15:43
(UTC+00:00)

Daily predictions for brighter satellites

Satellite Brightness Start Highest point End
(mag) Time Altitude Azimuth Time Altitude Azimuth Time Altitude Azimuth
Cosmos 883 Rocket 4.5 13:02:54 10° S 13:09:03 75° E 13:15:15 10° N
OAO 2 Rocket 3.4 13:06:53 10° WNW 13:12:06 90° SW 13:17:12 10° SE
Cosmos 1939 Rocket 3.3 13:08:26 10° SE 13:12:08 38° ENE 13:15:48 10° N
Hubble Space Telescope 0.7 13:09:04 10° WSW 13:13:10 82° SSE 13:17:18 10° ENE
Cosmos 1818 3.5 13:09:17 10° SSW 13:14:39 75° ESE 13:20:03 10° NNE
USA 81 4.1 13:10:06 10° N 13:15:17 59° E 13:20:28 10° SSE
Cosmos 371 Rocket 4.3 13:10:55 10° NNW 13:15:36 51° WSW 13:20:18 10° S
Meteor 2-15 4.4 13:12:23 10° S 13:18:21 63° E 13:24:18 10° NNE
SL-08 ROCKET BODY 4.4 13:13:28 10° N 13:19:24 66° E 13:25:13 10° SSE
Cosmos 1943 3.2 13:13:53 10° S 13:19:25 63° ESE 13:24:59 10° NNE
Cosmos 1626 2.9 13:18:45 10° NNE 13:22:02 30° E 13:25:19 10° SSE
Cosmos 1674 3.5 13:18:40 10° NNW 13:22:16 54° W 13:25:53 10° S
CSL-04 Rocket 3.9 13:18:31 10° SSE 13:23:35 46° ENE 13:28:36 10° N
Cosmos 1953 2.9 13:22:59 10° SSE 13:26:36 35° E 13:30:12 10° NNE
Meteor 1-24 Rocket 3.5 13:23:32 10° N 13:28:49 72° E 13:34:05 10° SSE
ATLAS 3B CENTAUR R/B 2.5 13:19:44 10° WNW 13:29:36 73° SSW 13:33:32 12° SE
Okean 1-7 Rocket 3.6 13:26:13 10° N 13:30:35 88° W 13:34:59 10° S
STARLINK-52 2.8 13:29:22 10° SSW 13:32:31 65° SE 13:35:42 10° NE
Cosmos 1745 Rocket 4.2 13:28:46 10° N 13:34:57 76° W 13:41:05 10° S
Cosmos 1470 3.7 13:34:02 10° SSW 13:37:46 51° W 13:41:33 10° N
H-2A R/B 3.4 13:36:03 14° ESE 13:38:41 20° ENE 13:42:27 10° NNE
Meteor 2-5 Rocket 4.5 13:35:52 10° NNW 13:41:14 54° W 13:46:36 10° S
Star 48 S/N 10026-3 4.4 13:40:37 10° WSW 13:43:09 62° SSE 13:44:14 27° E
STARLINK-1094 4.4 13:39:24 10° NNW 13:43:11 35° NE 13:45:11 22° ESE
FALCON 9 R/B 4.4 13:35:58 10° WNW 13:43:18 56° NNE 14:13:43 20° E
GOES 2 Rocket 3.3 13:41:06 10° NW 13:45:10 50° NNE 13:47:39 22° E
STARLINK-1117 4.2 13:44:18 10° NNW 13:48:11 40° NE 13:49:59 26° ESE
GPS 2-04 Rocket1 3.3 13:47:22 10° SSW 13:51:06 38° SE 13:52:32 28° E
ARGOS 4.3 13:50:39 21° E 13:51:48 23° ENE 13:55:56 10° NNE
STARLINK-1078 4.0 13:49:11 10° NNW 13:53:09 46° NE 13:54:46 30° ESE
STARLINK-1108 3.8 13:54:07 10° NNW 13:58:09 53° NE 13:59:34 35° ESE
GPS 2-18 Rocket1 4.4 13:55:27 10° SSW 13:58:30 23° SSE 13:58:41 23° SSE
Meteor 2-10 4.0 13:54:12 10° S 13:59:26 80° E 14:04:52 10° N
CZ-2C R/B 3.9 13:57:48 10° NE 14:00:01 20° ENE 14:00:01 20° ENE
STARLINK-1071 3.6 13:59:01 10° NNW 14:03:07 62° NE 14:04:21 40° ESE
Centaur D-1AR AC-39 2.9 14:00:57 10° W 14:05:55 31° SSW 14:07:32 21° SSE
YAOGAN 1 4.3 14:02:39 10° SSW 14:06:32 33° W 14:10:26 10° NW
STARLINK-1110 3.5 14:03:58 10° NNW 14:08:05 72° NE 14:09:08 47° ESE
Nadezhda 1 Rocket 4.2 14:02:31 10° SSE 14:08:34 46° E 14:14:37 10° NNE
Delta 2 Rocket 3.9 14:05:05 10° WNW 14:09:25 61° SW 14:11:26 33° SSE
USA 234 3.7 14:04:18 10° NNE 14:10:44 63° NW 14:17:10 10° SW
Cosmos 1726 2.4 14:07:05 10° S 14:10:47 69° W 14:14:29 10° N
GPS 2-15 Rocket1 3.2 14:07:18 10° WNW 14:12:14 76° N 14:13:40 45° E
Ariane Rocket 3.0 14:10:18 28° SE 14:12:49 58° ENE 14:17:47 10° N
STARLINK-1124 3.5 14:08:57 10° NW 14:13:04 83° NE 14:13:56 55° SE
Meteor 1-16 Rocket 4.0 14:08:41 10° S 14:13:59 88° W 14:19:22 10° N
STARLINK-1122 3.5 14:13:53 10° NW 14:18:01 85° SW 14:18:42 61° SSE
GEOS 3 Rocket 3.8 14:19:49 45° E 14:20:24 47° ENE 14:25:18 10° NNW
Cosmos 1190 Rocket 3.9 14:15:37 10° S 14:20:52 67° ESE 14:26:08 10° NNE
DMSP B5D2-2 4.1 14:16:01 10° NNE 14:21:08 55° ESE 14:26:15 10° S
STARLINK-1126 3.7 14:18:52 10° NW 14:22:59 73° SW 14:23:29 63° S
Cosmos 1140 Rocket 3.4 14:17:57 10° S 14:23:04 58° ESE 14:28:09 10° NNE
ATLAS 5 CENTAUR R/B 2.4 14:21:16 10° SW 14:25:06 45° WNW 14:29:02 10° N
IRIDIUM 104 4.1 14:21:15 10° N 14:26:27 74° E 14:28:26 38° SSE
Meteor 1-21 Rocket 4.0 14:21:04 10° N 14:26:34 68° E 14:28:08 46° SSE
STARLINK-1082 3.8 14:23:53 10° NW 14:27:57 63° SW 14:28:16 60° SSW
USA 186 4.1 14:31:49 18° N 14:31:49 18° N 14:32:49 10° N
STARLINK-1100 4.1 14:28:53 10° NW 14:32:54 54° SW 14:33:02 54° SW
MOS 1 Rocket 3.6 14:28:24 10° NNE 14:33:22 62° ENE 14:33:22 62° ENE
Cosmos 1726 Rocket 3.5 14:34:21 81° W 14:34:21 81° W 14:38:44 10° N
IRIDIUM 114 4.2 14:30:23 10° N 14:35:35 86° W 14:37:36 39° S
IRS-1A Rocket 4.2 14:33:37 34° S 14:36:12 85° WSW 14:41:55 10° NNW
STARLINK-1083 4.4 14:33:54 10° NW 14:37:48 47° WSW 14:37:48 47° WSW
Cosmos 2074 Rocket 3.8 14:41:22 10° N 14:47:39 81° E 14:48:15 73° SE
Cosmos 1943 Rocket 2.2 14:48:04 10° NNW 14:53:28 76° W 14:53:28 76° W
Hubble Space Telescope 2.8 14:51:01 10° WNW 14:53:43 25° NW 14:53:43 25° NW
Cosmos 2369 Rocket 2.6 14:49:11 10° NNW 14:53:23 51° N 14:53:23 51° N
Yuri Rocket 4.4 14:48:37 10° WSW 14:58:41 86° NNW 15:00:01 66° NE
CZ-2C R/B 4.0 15:07:22 41° W 15:07:22 41° W 15:11:57 10° NNW
H-2A R/B 3.8 15:16:40 27° WSW 15:17:48 29° W 15:22:18 10° NW
Centaur AC-42 3.9 15:18:42 10° WNW 15:20:10 22° WNW 15:20:10 22° WNW
ATLAS 3B R/B 3.2 22:02:08 49° NNE 22:02:08 49° NNE 22:06:49 10° NNE
Centaur AC-119 4.3 22:00:25 81° SSW 22:00:29 82° SSW 22:28:10 10° ESE
Nadezhda 4 Rocket 4.2 22:10:55 67° E 22:10:55 67° E 22:17:07 10° NNE
Cosmos 1867 4.3 22:14:34 48° NE 22:14:34 48° NE 22:18:36 10° NNE
Gbstr 26 Del rocket 4.0 22:15:56 76° ENE 22:15:56 76° ENE 22:21:24 10° NE
Meteor 1-13 Rocket 4.5 22:18:29 67° E 22:18:29 67° E 22:24:08 10° NNE
CZ-2C R/B 3.5 22:14:38 10° NNE 22:18:02 39° ENE 22:18:02 39° ENE
Cosmos 2279 Rocket 4.0 22:20:58 10° N 22:26:24 69° NNW 22:26:24 69° NNW
Okean 2 Rocket 4.2 22:25:58 10° NNE 22:30:15 43° E 22:34:31 10° SSE
GPS 2-12 Rocket1 3.8 22:34:47 47° E 22:34:47 47° E 22:38:00 10° E
Yuri Rocket 3.6 22:50:52 44° SSE 22:50:52 44° SSE 22:54:15 10° SE
SL-16 R/B 3.4 22:44:49 10° N 22:50:09 42° ENE 22:55:28 10° SE
Cosmos 1048 Rocket 3.9 22:45:22 10° NNW 22:50:44 89° WSW 22:56:07 10° SSE
Intelsat 5-3 Rocket 3.9 22:54:41 19° ESE 22:54:41 19° ESE 22:55:44 10° E
Cosmos 2180 Rocket 4.5 22:48:57 10° NNW 22:55:04 59° W 23:01:16 10° S
ASTRO E2 4.5 22:54:41 21° N 22:56:02 26° NNE 22:59:23 10° E
Timation 1 Rocket 4.3 22:56:28 44° SW 22:58:11 62° WNW 23:04:07 10° N
Cosmos 1356 3.9 23:00:28 10° N 23:03:51 60° E 23:07:13 10° SSE
Shenzhou-11 Module 4.5 23:06:36 12° N 23:06:36 12° N 23:06:57 10° NNE
GPS 2-14 Rocket1 2.6 23:06:37 64° WSW 23:07:12 87° SSE 23:11:14 10° ENE
Spot 2 4.3 23:02:08 10° N 23:07:15 76° WNW 23:11:11 16° SSW
Cosmos 1484 Rocket 3.3 23:03:50 10° NNE 23:07:30 55° E 23:11:08 10° S
Palapa 6 Rocket 3.8 23:07:28 31° NW 23:08:26 36° N 23:12:32 10° ENE
SL-4 R/B 4.1 23:11:58 16° SSW 23:11:58 16° SSW 23:13:16 10° S
FUSE 4.4 23:07:35 32° SW 23:09:44 53° SSE 23:14:54 10° E
Cosmos 1627 Rocket 4.3 23:03:40 10° S 23:09:51 81° W 23:15:59 10° N
Cosmos 2195 Rocket 4.3 23:04:44 10° S 23:10:49 70° W 23:16:56 10° N
Gblst 52 Del rocket 4.1 23:06:38 10° NW 23:12:24 85° NE 23:17:52 10° SE
Cosmos 2263 Rocket 2.4 23:12:22 30° SW 23:14:50 50° WNW 23:20:18 10° N
Cosmos 2237 Rocket 3.6 23:17:37 19° SW 23:17:37 19° SW 23:19:36 10° SSW
Okean 1 Rocket 4.2 23:18:04 10° N 23:22:17 47° E 23:26:31 10° SSE
Cosmos 1437 Rocket 2.7 23:19:26 10° S 23:23:29 84° W 23:27:35 10° N
Cosmos 1378 3.2 23:22:02 10° S 23:25:43 77° E 23:29:25 10° N
Lacrosse 4 Rocket 4.5 23:25:27 10° SE 23:27:39 14° ESE 23:29:53 10° ENE
H-2A R/B 2.3 23:28:50 10° N 23:32:41 57° WNW 23:36:27 10° SSW
Cosmos 1689 Rocket 2.8 23:31:20 10° SSW 23:34:03 31° W 23:36:47 10° NW
SWIFT 3.0 23:36:12 16° WNW 23:39:19 48° N 23:43:26 10° ENE
STARLINK-1168 3.8 23:42:30 10° SSW 23:45:48 52° SE 23:49:08 10° NE
STARLINK-1164 3.8 23:43:42 10° SSW 23:47:03 54° SE 23:50:23 10° NE
Okean 2 3.3 23:43:32 10° SSW 23:47:38 68° W 23:51:44 10° N
STARLINK-1182 3.7 23:44:57 10° SSW 23:48:18 57° SE 23:51:39 10° NE
Lacrosse 5 2.5 23:44:58 10° SSW 23:49:56 57° ESE 23:54:53 10° NE
PSLV R/B 4.1 23:46:47 10° S 23:50:53 54° W 23:55:00 10° NNW
SJ-12 3.9 23:46:57 10° N 23:50:56 57° WNW 23:54:54 10° SSW
STARLINK-1172 3.5 23:47:47 10° SSW 23:51:09 63° SE 23:54:31 10° NE
STARLINK-1145 3.4 23:49:06 10° SSW 23:52:29 67° SE 23:55:53 10° NE
Meteor 1-31 Rocket 4.2 23:49:44 10° NNW 23:52:29 19° WNW 23:55:14 10° WSW
GPS 2-04 Rocket1 3.5 23:49:56 13° W 23:52:48 30° SW 23:56:05 10° SSE
STARLINK-1161 3.4 23:50:24 10° SSW 23:53:49 71° SE 23:57:13 10° NE
STARLINK-1179 2.8 23:51:00 10° SW 23:54:05 73° NW 23:57:10 10° NNE
STARLINK-1176 2.8 23:51:28 10° SW 23:54:32 72° NW 23:57:37 10° NNE
STARLINK-1160 3.3 23:51:44 10° SSW 23:55:10 74° SE 23:58:34 10° NE
